| time (UTC) | temp F | wind direction | speed MPH | gust MPH | rain 1hr in | rain 24hr in | rain mn in | humidity % | barometer mb |
| 20260505215010 | 62 | 298 | 3.0 | 4.0 | 0.00 | 0.00 | 0.00 | 77 | 1008.6 |
| 20260505214508 | 63 | 354 | 7.0 | 12.0 | 0.00 | 0.00 | 0.00 | 74 | 1008.7 |
| 20260505214004 | 63 | 354 | 3.0 | 4.0 | 0.00 | 0.00 | 0.00 | 73 | 1008.5 |
| 20260505213502 | 63 | 277 | 4.0 | 10.0 | 0.00 | 0.00 | 0.00 | 72 | 1008.6 |
| 20260505212958 | 63 | 264 | 2.0 | 4.0 | 0.00 | 0.00 | 0.00 | 73 | 1008.4 |
| 20260505212455 | 63 | 274 | 1.0 | 3.0 | 0.00 | 0.00 | 0.00 | 73 | 1008.4 |
| 20260505211952 | 63 | 273 | 3.0 | 5.0 | 0.00 | 0.00 | 0.00 | 72 | 1008.4 |
| 20260505211449 | 63 | 268 | 1.0 | 1.0 | 0.00 | 0.00 | 0.00 | 73 | 1008.5 |
| 20260505210945 | 63 | 290 | 3.0 | 4.0 | 0.00 | 0.00 | 0.00 | 72 | 1008.4 |
| 20260505210443 | 64 | 301 | 1.0 | 4.0 | 0.00 | 0.00 | 0.00 | 72 | 1008.4 |
| 20260505205939 | 64 | 207 | 2.0 | 4.0 | 0.00 | 0.00 | 0.00 | 71 | 1008.3 |
| 20260505205438 | 64 | 228 | 2.0 | 4.0 | 0.00 | 0.00 | 0.00 | 71 | 1008.3 |
| 20260505204934 | 64 | 264 | 4.0 | 5.0 | 0.00 | 0.00 | 0.00 | 70 | 1008.6 |
| 20260505204432 | 64 | 194 | 8.0 | 10.0 | 0.00 | 0.00 | 0.00 | 68 | 1008.4 |
| 20260505203929 | 65 | 255 | 8.0 | 10.0 | 0.00 | 0.00 | 0.00 | 67 | 1008.6 |
| 20260505203425 | 66 | 241 | 5.0 | 7.0 | 0.00 | 0.00 | 0.00 | 64 | 1008.4 |
| 20260505202922 | 66 | 266 | 4.0 | 8.0 | 0.00 | 0.00 | 0.00 | 62 | 1008.3 |
| 20260505202418 | 66 | 300 | 2.0 | 7.0 | 0.00 | 0.00 | 0.00 | 62 | 1008.4 |
| 20260505201915 | 66 | 242 | 3.0 | 3.0 | 0.00 | 0.00 | 0.00 | 63 | 1008.2 |
| 20260505201412 | 66 | 215 | 2.0 | 1.0 | 0.00 | 0.00 | 0.00 | 62 | 1008.1 |
| 20260505200910 | 66 | 215 | 4.0 | 7.0 | 0.00 | 0.00 | 0.00 | 60 | 1008.2 |
| 20260505200407 | 66 | 224 | 3.0 | 5.0 | 0.00 | 0.00 | 0.00 | 61 | 1008.4 |
| 20260505195902 | 66 | 212 | 3.0 | 5.0 | 0.00 | 0.00 | 0.00 | 61 | 1008.4 |
| 20260505195400 | 66 | 251 | 3.0 | 5.0 | 0.00 | 0.00 | 0.00 | 61 | 1008.3 |
| 20260505194857 | 67 | 247 | 6.0 | 11.0 | 0.00 | 0.00 | 0.00 | 60 | 1008.3 |
| 20260505194355 | 67 | 280 | 2.0 | 3.0 | 0.00 | 0.00 | 0.00 | 61 | 1008.5 |
| 20260505193854 | 67 | 202 | 3.0 | 4.0 | 0.00 | 0.00 | 0.00 | 60 | 1008.4 |
| 20260505193353 | 67 | 280 | 1.0 | 4.0 | 0.00 | 0.00 | 0.00 | 60 | 1008.4 |
| 20260505192850 | 66 | 355 | 2.0 | 10.0 | 0.00 | 0.00 | 0.00 | 62 | 1008.6 |
| 20260505192348 | 66 | 251 | 2.0 | 4.0 | 0.00 | 0.00 | 0.00 | 61 | 1008.5 |
| 20260505191845 | 66 | 274 | 3.0 | 7.0 | 0.00 | 0.00 | 0.00 | 61 | 1008.8 |
| 20260505191344 | 66 | 313 | 6.0 | 8.0 | 0.00 | 0.00 | 0.00 | 61 | 1008.8 |
| 20260505190840 | 66 | 233 | 6.0 | 5.0 | 0.00 | 0.00 | 0.00 | 60 | 1008.9 |
| 20260505190336 | 66 | 264 | 6.0 | 7.0 | 0.00 | 0.00 | 0.00 | 60 | 1008.9 |
| 20260505185831 | 66 | 293 | 7.0 | 8.0 | 0.00 | 0.00 | 0.00 | 60 | 1009.1 |
| 20260505185328 | 65 | 297 | 3.0 | 8.0 | 0.00 | 0.00 | 0.00 | 61 | 1009.1 |
| 20260505184824 | 65 | 273 | 4.0 | 10.0 | 0.00 | 0.00 | 0.00 | 62 | 1009.3 |
| 20260505184322 | 65 | 299 | 2.0 | 4.0 | 0.00 | 0.00 | 0.00 | 63 | 1009.4 |
| 20260505183819 | 65 | 255 | 3.0 | 4.0 | 0.00 | 0.00 | 0.00 | 61 | 1009.3 |
| 20260505183315 | 65 | 306 | 3.0 | 5.0 | 0.00 | 0.00 | 0.00 | 61 | 1009.2 |
| 20260505182812 | 65 | 297 | 3.0 | 8.0 | 0.00 | 0.00 | 0.00 | 61 | 1009.3 |
| 20260505182309 | 66 | 332 | 2.0 | 5.0 | 0.00 | 0.00 | 0.00 | 60 | 1008.9 |
| 20260505181806 | 66 | 266 | 3.0 | 4.0 | 0.00 | 0.00 | 0.00 | 60 | 1009.0 |
| 20260505181303 | 66 | 242 | 4.0 | 7.0 | 0.00 | 0.00 | 0.00 | 61 | 1008.9 |
| 20260505180759 | 66 | 313 | 3.0 | 5.0 | 0.00 | 0.00 | 0.00 | 59 | 1008.9 |
| 20260505180256 | 66 | 257 | 2.0 | 4.0 | 0.00 | 0.00 | 0.00 | 59 | 1008.7 |
| 20260505175752 | 67 | 284 | 3.0 | 7.0 | 0.00 | 0.00 | 0.00 | 58 | 1008.7 |
| 20260505175249 | 67 | 263 | 4.0 | 10.0 | 0.00 | 0.00 | 0.00 | 59 | 1008.8 |
| 20260505174745 | 67 | 324 | 7.0 | 8.0 | 0.00 | 0.00 | 0.00 | 58 | 1008.6 |
| 20260505174243 | 67 | 235 | 2.0 | 5.0 | 0.00 | 0.00 | 0.00 | 58 | 1008.6 |
| 20260505173739 | 67 | 261 | 4.0 | 7.0 | 0.00 | 0.00 | 0.00 | 59 | 1008.5 |
| 20260505173236 | 67 | 240 | 2.0 | 5.0 | 0.00 | 0.00 | 0.00 | 58 | 1008.4 |
| 20260505172732 | 67 | 263 | 7.0 | 10.0 | 0.00 | 0.00 | 0.00 | 57 | 1008.6 |
| 20260505172229 | 67 | 276 | 7.0 | 10.0 | 0.00 | 0.00 | 0.00 | 57 | 1008.3 |
| 20260505171729 | 67 | 242 | 4.0 | 15.0 | 0.00 | 0.00 | 0.00 | 57 | 1008.4 |
| 20260505171227 | 67 | 227 | 3.0 | 10.0 | 0.00 | 0.00 | 0.00 | 57 | 1008.7 |
| 20260505170723 | 68 | 254 | 10.0 | 12.0 | 0.00 | 0.00 | 0.00 | 56 | 1008.7 |
| 20260505170220 | 68 | 206 | 3.0 | 5.0 | 0.00 | 0.00 | 0.00 | 56 | 1008.7 |
| 20260505165716 | 68 | 264 | 3.0 | 14.0 | 0.00 | 0.00 | 0.00 | 55 | 1008.6 |
| 20260505165212 | 68 | 245 | 10.0 | 16.0 | 0.00 | 0.00 | 0.00 | 55 | 1008.5 |
| 20260505164707 | 68 | 240 | 5.0 | 10.0 | 0.00 | 0.00 | 0.00 | 55 | 1008.5 |
| 20260505164205 | 68 | 228 | 4.0 | 16.0 | 0.00 | 0.00 | 0.00 | 54 | 1008.4 |
| 20260505163703 | 68 | 261 | 2.0 | 10.0 | 0.00 | 0.00 | 0.00 | 54 | 1008.5 |
| 20260505163201 | 69 | 178 | 3.0 | 15.0 | 0.00 | 0.00 | 0.00 | 52 | 1008.6 |
| 20260505162658 | 70 | 234 | 5.0 | 11.0 | 0.00 | 0.00 | 0.00 | 52 | 1008.6 |
| 20260505162155 | 71 | 237 | 3.0 | 8.0 | 0.00 | 0.00 | 0.00 | 53 | 1008.5 |
| 20260505161652 | 69 | 218 | 5.0 | 14.0 | 0.00 | 0.00 | 0.00 | 53 | 1008.3 |
| 20260505161149 | 69 | 248 | 10.0 | 15.0 | 0.00 | 0.00 | 0.00 | 54 | 1008.2 |
| 20260505160647 | 70 | 250 | 7.0 | 16.0 | 0.00 | 0.00 | 0.00 | 52 | 1007.9 |
| 20260505160144 | 70 | 298 | 5.0 | 23.0 | 0.00 | 0.00 | 0.00 | 53 | 1007.9 |
| 20260505153124 | 68 | 269 | 6.0 | 16.0 | 0.00 | 0.00 | 0.00 | 56 | 1008.5 |
| 20260505152620 | 67 | 254 | 4.0 | 10.0 | 0.00 | 0.00 | 0.00 | 57 | 1008.4 |
| 20260505152116 | 67 | 256 | 7.0 | 12.0 | 0.00 | 0.00 | 0.00 | 57 | 1008.4 |
| 20260505151611 | 67 | 262 | 5.0 | 18.0 | 0.00 | 0.00 | 0.00 | 56 | 1008.2 |
| 20260505151109 | 67 | 318 | 5.0 | 16.0 | 0.00 | 0.00 | 0.00 | 57 | 1008.1 |
| 20260505150605 | 67 | 273 | 5.0 | 10.0 | 0.00 | 0.00 | 0.00 | 59 | 1008.4 |
| 20260505140531 | 65 | 237 | 10.0 | 11.0 | 0.00 | 0.00 | 0.00 | 61 | 1008.0 |
| 20260505124944 | 61 | 216 | 2.0 | 10.0 | 0.00 | 0.00 | 0.00 | 69 | 1007.6 |
| 20260505124441 | 61 | 176 | 5.0 | 7.0 | 0.00 | 0.00 | 0.00 | 69 | 1007.2 |
| 20260505123937 | 62 | 172 | 5.0 | 8.0 | 0.00 | 0.00 | 0.00 | 67 | 1007.6 |
| 20260505123433 | 62 | 207 | 4.0 | 8.0 | 0.00 | 0.00 | 0.00 | 66 | 1007.7 |
| 20260505122929 | 62 | 223 | 4.0 | 8.0 | 0.00 | 0.00 | 0.00 | 67 | 1007.2 |
| 20260505122427 | 62 | 266 | 8.0 | 10.0 | 0.00 | 0.00 | 0.00 | 66 | 1007.4 |
| 20260505121924 | 62 | 205 | 5.0 | 5.0 | 0.00 | 0.00 | 0.00 | 65 | 1007.5 |
| 20260505121421 | 62 | 192 | 2.0 | 7.0 | 0.00 | 0.00 | 0.00 | 65 | 1007.5 |
| 20260505120916 | 62 | 261 | 5.0 | 11.0 | 0.00 | 0.00 | 0.00 | 65 | 1007.7 |
| 20260505120413 | 62 | 210 | 3.0 | 7.0 | 0.00 | 0.00 | 0.00 | 65 | 1007.6 |
| 20260505115912 | 62 | 209 | 3.0 | 11.0 | 0.00 | 0.00 | 0.00 | 64 | 1007.9 |
| 20260505115409 | 63 | 223 | 3.0 | 11.0 | 0.00 | 0.00 | 0.00 | 63 | 1007.7 |
| 20260505114907 | 63 | 181 | 5.0 | 11.0 | 0.00 | 0.00 | 0.00 | 63 | 1007.5 |
| 20260505114403 | 63 | 171 | 3.0 | 7.0 | 0.00 | 0.00 | 0.00 | 64 | 1007.5 |
| 20260505113859 | 63 | 126 | 4.0 | 7.0 | 0.00 | 0.00 | 0.00 | 63 | 1007.5 |
| 20260505113356 | 63 | 227 | 3.0 | 8.0 | 0.00 | 0.00 | 0.00 | 63 | 1007.6 |
| 20260505112852 | 63 | 241 | 5.0 | 8.0 | 0.00 | 0.00 | 0.00 | 62 | 1007.5 |
| 20260505112350 | 63 | 285 | 5.0 | 11.0 | 0.00 | 0.00 | 0.00 | 62 | 1007.4 |
| 20260505111845 | 63 | 228 | 4.0 | 10.0 | 0.00 | 0.00 | 0.00 | 62 | 1007.1 |
| 20260505111340 | 63 | 223 | 9.0 | 11.0 | 0.00 | 0.00 | 0.00 | 62 | 1007.1 |
| 20260505110837 | 63 | 227 | 5.0 | 7.0 | 0.00 | 0.00 | 0.00 | 62 | 1006.9 |
| 20260505110334 | 63 | 273 | 10.0 | 14.0 | 0.00 | 0.00 | 0.00 | 62 | 1007.0 |
| 20260505101809 | 63 | 220 | 8.0 | 11.0 | 0.00 | 0.00 | 0.00 | 61 | 1006.7 |
| 20260505101304 | 64 | 215 | 5.0 | 8.0 | 0.00 | 0.00 | 0.00 | 60 | 1006.5 |
| 20260505100801 | 63 | 154 | 6.0 | 8.0 | 0.00 | 0.00 | 0.00 | 60 | 1006.5 |
| 20260505100257 | 63 | 185 | 6.0 | 16.0 | 0.00 | 0.00 | 0.00 | 60 | 1006.4 |
| 20260505095753 | 63 | 153 | 3.0 | 7.0 | 0.00 | 0.00 | 0.00 | 61 | 1006.5 |
| 20260505095251 | 64 | 260 | 3.0 | 11.0 | 0.00 | 0.00 | 0.00 | 60 | 1006.4 |
| 20260505094746 | 64 | 208 | 7.0 | 11.0 | 0.00 | 0.00 | 0.00 | 60 | 1006.3 |
| 20260505094243 | 64 | 173 | 3.0 | 5.0 | 0.00 | 0.00 | 0.00 | 60 | 1006.3 |
| 20260505093739 | 64 | 225 | 3.0 | 10.0 | 0.00 | 0.00 | 0.00 | 59 | 1006.0 |
| 20260505093237 | 64 | 277 | 7.0 | 11.0 | 0.00 | 0.00 | 0.00 | 59 | 1006.3 |
| 20260505092734 | 64 | 123 | 5.0 | 12.0 | 0.00 | 0.00 | 0.00 | 59 | 1006.1 |
| 20260505092232 | 64 | 218 | 11.0 | 16.0 | 0.00 | 0.00 | 0.00 | 59 | 1006.0 |
| 20260505091729 | 64 | 223 | 5.0 | 12.0 | 0.00 | 0.00 | 0.00 | 59 | 1006.1 |
| 20260505091228 | 64 | 243 | 7.0 | 11.0 | 0.00 | 0.00 | 0.00 | 59 | 1006.1 |
| 20260505090725 | 64 | 238 | 3.0 | 5.0 | 0.00 | 0.00 | 0.00 | 60 | 1005.9 |
| 20260505090223 | 64 | 274 | 3.0 | 8.0 | 0.00 | 0.00 | 0.00 | 58 | 1006.0 |
| 20260505085720 | 64 | 251 | 9.0 | 16.0 | 0.00 | 0.00 | 0.00 | 58 | 1006.0 |
| 20260505085218 | 64 | 222 | 4.0 | 12.0 | 0.00 | 0.00 | 0.00 | 59 | 1005.9 |
| 20260505084715 | 64 | 218 | 4.0 | 8.0 | 0.00 | 0.00 | 0.00 | 59 | 1005.9 |
| 20260505084214 | 64 | 229 | 7.0 | 11.0 | 0.00 | 0.00 | 0.00 | 59 | 1005.8 |
| 20260505083710 | 65 | 213 | 3.0 | 7.0 | 0.00 | 0.00 | 0.00 | 58 | 1005.8 |
| 20260505083207 | 65 | 224 | 6.0 | 10.0 | 0.00 | 0.00 | 0.00 | 58 | 1005.8 |
| 20260505082703 | 65 | 213 | 4.0 | 10.0 | 0.00 | 0.00 | 0.00 | 59 | 1005.7 |
| 20260505082201 | 64 | 228 | 10.0 | 15.0 | 0.00 | 0.00 | 0.00 | 59 | 1005.8 |
| 20260505081656 | 64 | 235 | 6.0 | 12.0 | 0.00 | 0.00 | 0.00 | 59 | 1005.7 |
| 20260505081154 | 64 | 231 | 3.0 | 14.0 | 0.00 | 0.00 | 0.00 | 60 | 1005.7 |
| 20260505080651 | 64 | 206 | 6.0 | 7.0 | 0.00 | 0.00 | 0.00 | 59 | 1005.5 |
| 20260505080146 | 64 | 178 | 3.0 | 11.0 | 0.00 | 0.00 | 0.00 | 59 | 1005.4 |
| 20260505075642 | 64 | 187 | 3.0 | 7.0 | 0.00 | 0.00 | 0.00 | 59 | 1005.3 |
| 20260505075139 | 64 | 211 | 9.0 | 15.0 | 0.00 | 0.00 | 0.00 | 59 | 1005.4 |
| 20260505074636 | 64 | 231 | 8.0 | 10.0 | 0.00 | 0.00 | 0.00 | 60 | 1005.4 |
| 20260505074133 | 64 | 209 | 5.0 | 11.0 | 0.00 | 0.00 | 0.00 | 60 | 1005.2 |
| 20260505073631 | 64 | 183 | 4.0 | 7.0 | 0.00 | 0.00 | 0.00 | 60 | 1005.2 |
| 20260505073129 | 64 | 177 | 3.0 | 11.0 | 0.00 | 0.00 | 0.00 | 59 | 1005.2 |
| 20260505072624 | 64 | 250 | 5.0 | 10.0 | 0.00 | 0.00 | 0.00 | 59 | 1005.2 |
| 20260505072121 | 64 | 241 | 7.0 | 10.0 | 0.00 | 0.00 | 0.00 | 59 | 1005.2 |
| 20260505071617 | 64 | 230 | 4.0 | 11.0 | 0.00 | 0.00 | 0.00 | 59 | 1005.2 |
| 20260505071115 | 64 | 180 | 3.0 | 11.0 | 0.00 | 0.00 | 0.00 | 59 | 1005.1 |
| 20260505070612 | 64 | 192 | 4.0 | 5.0 | 0.00 | 0.00 | 0.00 | 59 | 1005.2 |
| 20260505070108 | 64 | 209 | 5.0 | 10.0 | 0.00 | 0.00 | 0.00 | 59 | 1005.2 |
| 20260505065604 | 65 | 261 | 5.0 | 15.0 | 0.00 | 0.00 | 0.00 | 58 | 1005.2 |
| 20260505065101 | 64 | 216 | 7.0 | 8.0 | 0.00 | 0.00 | 0.00 | 59 | 1005.3 |
| 20260505064558 | 65 | 236 | 10.0 | 11.0 | 0.00 | 0.00 | 0.00 | 59 | 1005.3 |
| 20260505064056 | 65 | 211 | 4.0 | 12.0 | 0.00 | 0.00 | 0.00 | 58 | 1005.3 |
| 20260505063553 | 65 | 244 | 11.0 | 14.0 | 0.00 | 0.00 | 0.00 | 58 | 1005.5 |
| 20260505063049 | 65 | 218 | 3.0 | 8.0 | 0.00 | 0.00 | 0.00 | 59 | 1005.5 |
| 20260505062545 | 65 | 240 | 7.0 | 11.0 | 0.00 | 0.00 | 0.00 | 59 | 1005.4 |
| 20260505062043 | 65 | 197 | 4.0 | 7.0 | 0.00 | 0.00 | 0.00 | 58 | 1005.7 |
| 20260505061540 | 65 | 198 | 3.0 | 5.0 | 0.00 | 0.00 | 0.00 | 58 | 1005.6 |
| 20260505061038 | 65 | 245 | 5.0 | 11.0 | 0.00 | 0.00 | 0.00 | 58 | 1005.6 |
| 20260505060535 | 65 | 205 | 5.0 | 11.0 | 0.00 | 0.00 | 0.00 | 57 | 1005.6 |
| 20260505060032 | 65 | 216 | 3.0 | 5.0 | 0.00 | 0.00 | 0.00 | 58 | 1005.7 |
| 20260505055527 | 65 | 207 | 5.0 | 8.0 | 0.00 | 0.00 | 0.00 | 58 | 1005.9 |
| 20260505055024 | 65 | 210 | 4.0 | 10.0 | 0.00 | 0.00 | 0.00 | 58 | 1005.9 |
| 20260505054521 | 65 | 166 | 6.0 | 10.0 | 0.00 | 0.00 | 0.00 | 58 | 1005.9 |
| 20260505054020 | 65 | 258 | 7.0 | 8.0 | 0.00 | 0.00 | 0.00 | 58 | 1006.2 |
| 20260505053516 | 65 | 214 | 3.0 | 8.0 | 0.00 | 0.00 | 0.00 | 59 | 1006.2 |
| 20260505053013 | 64 | 273 | 6.0 | 8.0 | 0.00 | 0.00 | 0.00 | 60 | 1006.1 |
| 20260505052510 | 64 | 215 | 5.0 | 7.0 | 0.00 | 0.00 | 0.00 | 60 | 1006.2 |
| 20260505052008 | 64 | 222 | 3.0 | 7.0 | 0.00 | 0.00 | 0.00 | 61 | 1006.1 |
| 20260505051504 | 64 | 177 | 3.0 | 5.0 | 0.00 | 0.00 | 0.00 | 60 | 1006.2 |
| 20260505051003 | 64 | 220 | 6.0 | 8.0 | 0.00 | 0.00 | 0.00 | 60 | 1006.4 |
| 20260505050500 | 64 | 222 | 4.0 | 10.0 | 0.00 | 0.00 | 0.00 | 61 | 1006.4 |
| 20260505041428 | 64 | 215 | 6.0 | 11.0 | 0.00 | 0.00 | 0.00 | 60 | 1006.4 |
| 20260505040925 | 63 | 223 | 3.0 | 10.0 | 0.00 | 0.00 | 0.00 | 61 | 1006.6 |
| 20260505040423 | 63 | 221 | 3.0 | 5.0 | 0.00 | 0.00 | 0.00 | 61 | 1006.6 |
| 20260505035919 | 63 | 208 | 3.0 | 7.0 | 0.00 | 0.00 | 0.00 | 60 | 1006.6 |
| 20260505035415 | 63 | 210 | 3.0 | 7.0 | 0.00 | 0.00 | 0.00 | 60 | 1006.6 |
| 20260505034912 | 63 | 180 | 2.0 | 8.0 | 0.00 | 0.00 | 0.00 | 60 | 1006.7 |
| 20260505034409 | 63 | 188 | 3.0 | 8.0 | 0.00 | 0.00 | 0.00 | 60 | 1006.8 |
| 20260505033906 | 63 | 172 | 3.0 | 8.0 | 0.00 | 0.00 | 0.00 | 59 | 1006.7 |
| 20260505033403 | 63 | 234 | 8.0 | 11.0 | 0.00 | 0.00 | 0.00 | 59 | 1006.6 |
| 20260505032901 | 63 | 213 | 5.0 | 8.0 | 0.00 | 0.00 | 0.00 | 59 | 1006.4 |
| 20260505032357 | 64 | 172 | 3.0 | 8.0 | 0.00 | 0.00 | 0.00 | 58 | 1006.5 |
| 20260505031854 | 64 | 183 | 3.0 | 5.0 | 0.00 | 0.00 | 0.00 | 58 | 1006.6 |
| 20260505031351 | 64 | 201 | 4.0 | 7.0 | 0.00 | 0.00 | 0.00 | 58 | 1006.6 |
| 20260505030848 | 64 | 166 | 5.0 | 10.0 | 0.00 | 0.00 | 0.00 | 58 | 1006.7 |
| 20260505030344 | 64 | 211 | 5.0 | 5.0 | 0.00 | 0.00 | 0.00 | 58 | 1006.6 |
| 20260505025839 | 64 | 205 | 1.0 | 7.0 | 0.00 | 0.00 | 0.00 | 58 | 1006.6 |
| 20260505025337 | 64 | 180 | 7.0 | 8.0 | 0.00 | 0.00 | 0.00 | 57 | 1006.7 |
| 20260505024836 | 64 | 183 | 2.0 | 5.0 | 0.00 | 0.00 | 0.00 | 57 | 1006.8 |
| 20260505024333 | 64 | 199 | 4.0 | 5.0 | 0.00 | 0.00 | 0.00 | 57 | 1006.6 |
| 20260505023830 | 64 | 168 | 3.0 | 5.0 | 0.00 | 0.00 | 0.00 | 57 | 1006.8 |
| 20260505023327 | 64 | 200 | 2.0 | 3.0 | 0.00 | 0.00 | 0.00 | 57 | 1006.9 |
| 20260505022824 | 64 | 222 | 6.0 | 8.0 | 0.00 | 0.00 | 0.00 | 56 | 1007.0 |
| 20260505022321 | 65 | 213 | 3.0 | 7.0 | 0.00 | 0.00 | 0.00 | 56 | 1007.0 |
| 20260505021819 | 65 | 202 | 2.0 | 5.0 | 0.00 | 0.00 | 0.00 | 56 | 1007.1 |
| 20260505021315 | 65 | 219 | 4.0 | 4.0 | 0.00 | 0.00 | 0.00 | 56 | 1007.1 |
| 20260505020811 | 65 | 214 | 3.0 | 4.0 | 0.00 | 0.00 | 0.00 | 56 | 1006.9 |
| 20260505020307 | 65 | 253 | 4.0 | 7.0 | 0.00 | 0.00 | 0.00 | 56 | 1007.1 |
| 20260505015804 | 65 | 228 | 6.0 | 7.0 | 0.00 | 0.00 | 0.00 | 55 | 1006.9 |
| 20260505015301 | 66 | 208 | 3.0 | 5.0 | 0.00 | 0.00 | 0.00 | 54 | 1006.9 |
| 20260505014758 | 66 | 233 | 3.0 | 7.0 | 0.00 | 0.00 | 0.00 | 53 | 1006.8 |
| 20260505014255 | 66 | 233 | 3.0 | 7.0 | 0.00 | 0.00 | 0.00 | 53 | 1006.8 |
| 20260505013751 | 66 | 217 | 5.0 | 8.0 | 0.00 | 0.00 | 0.00 | 53 | 1006.7 |
| 20260505013248 | 66 | 185 | 3.0 | 10.0 | 0.00 | 0.00 | 0.00 | 52 | 1006.9 |
| 20260505012746 | 66 | 215 | 3.0 | 14.0 | 0.00 | 0.00 | 0.00 | 52 | 1006.8 |
| 20260505012238 | 67 | 234 | 5.0 | 10.0 | 0.00 | 0.00 | 0.00 | 52 | 1006.8 |
| 20260505011733 | 67 | 183 | 4.0 | 8.0 | 0.00 | 0.00 | 0.00 | 51 | 1006.3 |
| 20260505011231 | 67 | 214 | 10.0 | 12.0 | 0.00 | 0.00 | 0.00 | 51 | 1006.5 |
| 20260505010726 | 67 | 193 | 7.0 | 15.0 | 0.00 | 0.00 | 0.00 | 51 | 1006.3 |
| 20260505010223 | 67 | 193 | 7.0 | 15.0 | 0.00 | 0.00 | 0.00 | 51 | 1006.3 |
| 20260505005720 | 67 | 114 | 4.0 | 12.0 | 0.00 | 0.00 | 0.00 | 51 | 1006.4 |
| 20260505005217 | 67 | 197 | 8.0 | 8.0 | 0.00 | 0.00 | 0.00 | 51 | 1006.4 |
| 20260505004714 | 68 | 142 | 8.0 | 10.0 | 0.00 | 0.00 | 0.00 | 50 | 1006.1 |
| 20260505004210 | 68 | 244 | 7.0 | 10.0 | 0.00 | 0.00 | 0.00 | 50 | 1006.2 |
| 20260505003708 | 68 | 228 | 7.0 | 11.0 | 0.00 | 0.00 | 0.00 | 49 | 1006.1 |
| 20260505003206 | 68 | 203 | 3.0 | 12.0 | 0.00 | 0.00 | 0.00 | 49 | 1006.0 |
| 20260505002701 | 68 | 247 | 6.0 | 8.0 | 0.00 | 0.00 | 0.00 | 49 | 1005.9 |
| 20260505002159 | 69 | 218 | 3.0 | 5.0 | 0.00 | 0.00 | 0.00 | 48 | 1005.8 |
| 20260505001656 | 68 | 174 | 7.0 | 14.0 | 0.00 | 0.00 | 0.00 | 48 | 1005.7 |
| 20260505001154 | 69 | 238 | 5.0 | 7.0 | 0.00 | 0.00 | 0.00 | 47 | 1005.7 |
| 20260505000650 | 69 | 186 | 6.0 | 14.0 | 0.00 | 0.00 | 0.00 | 47 | 1005.7 |
| 20260505000148 | 69 | 276 | 7.0 | 11.0 | 0.00 | 0.00 | 0.00 | 47 | 1005.6 |
| 20260504235644 | 69 | 261 | 6.0 | 8.0 | 0.00 | 0.00 | 0.00 | 47 | 1005.5 |
| 20260504235141 | 69 | 213 | 4.0 | 7.0 | 0.00 | 0.00 | 0.00 | 48 | 1005.5 |
| 20260504234638 | 69 | 202 | 4.0 | 11.0 | 0.00 | 0.00 | 0.00 | 47 | 1005.5 |
| 20260504234130 | 70 | 213 | 12.0 | 18.0 | 0.00 | 0.00 | 0.00 | 46 | 1005.5 |
| 20260504233625 | 70 | 202 | 9.0 | 15.0 | 0.00 | 0.00 | 0.00 | 47 | 1005.3 |
| 20260504233121 | 70 | 175 | 6.0 | 10.0 | 0.00 | 0.00 | 0.00 | 48 | 1005.5 |
| 20260504232620 | 70 | 276 | 8.0 | 12.0 | 0.00 | 0.00 | 0.00 | 46 | 1005.5 |
| 20260504232116 | 70 | 237 | 13.0 | 18.0 | 0.00 | 0.00 | 0.00 | 47 | 1005.4 |
| 20260504231613 | 71 | 224 | 3.0 | 8.0 | 0.00 | 0.00 | 0.00 | 47 | 1005.5 |
| 20260504231109 | 71 | 196 | 7.0 | 16.0 | 0.00 | 0.00 | 0.00 | 46 | 1005.4 |
| 20260504230605 | 71 | 263 | 14.0 | 22.0 | 0.00 | 0.00 | 0.00 | 46 | 1005.6 |
| 20260504230104 | 71 | 215 | 7.0 | 11.0 | 0.00 | 0.00 | 0.00 | 46 | 1005.5 |
| 20260504225602 | 71 | 217 | 6.0 | 14.0 | 0.00 | 0.00 | 0.00 | 46 | 1005.8 |
| 20260504225058 | 71 | 242 | 11.0 | 14.0 | 0.00 | 0.00 | 0.00 | 47 | 1005.7 |
| 20260504224555 | 70 | 227 | 4.0 | 11.0 | 0.00 | 0.00 | 0.00 | 47 | 1005.8 |
| 20260504224052 | 70 | 218 | 3.0 | 11.0 | 0.00 | 0.00 | 0.00 | 48 | 1005.9 |
| 20260504223549 | 70 | 206 | 6.0 | 7.0 | 0.00 | 0.00 | 0.00 | 48 | 1005.8 |
| 20260504223044 | 70 | 185 | 5.0 | 12.0 | 0.00 | 0.00 | 0.00 | 47 | 1006.0 |
| 20260504222542 | 70 | 202 | 7.0 | 14.0 | 0.00 | 0.00 | 0.00 | 47 | 1006.1 |
| 20260504222039 | 70 | 265 | 11.0 | 15.0 | 0.00 | 0.00 | 0.00 | 46 | 1006.0 |
| 20260504221536 | 71 | 225 | 6.0 | 15.0 | 0.00 | 0.00 | 0.00 | 47 | 1006.1 |
| 20260504221033 | 71 | 203 | 4.0 | 14.0 | 0.00 | 0.00 | 0.00 | 47 | 1006.1 |
| 20260504220529 | 71 | 215 | 11.0 | 14.0 | 0.00 | 0.00 | 0.00 | 46 | 1006.2 |
| 20260504220026 | 70 | 216 | 3.0 | 7.0 | 0.00 | 0.00 | 0.00 | 48 | 1006.1 |
| 20260504215523 | 70 | 206 | 5.0 | 8.0 | 0.00 | 0.00 | 0.00 | 47 | 1006.2 |